HAWK-7B

导读

HAWK-7B是由美国发射的一颗卫星,于北京时间2023年4月15日8时成功发射入轨。作为HAWK系列卫星的成员,它延续了该系列卫星的技术路线,承担着空间技术验证、对地观测等相关航天任务,进一步充实了美国低轨卫星星座的部署规模,为后续相关航天应用提供数据与技术支撑,助力美国在商业航天和航天技术探索领域的持续发展。

基本信息
目录编号:
56193
目录名称:
HAWK-7B
国际标识:
2023-054R
轨道中心:
EARTH
卫星名称:
HAWK-7B
卫星全名:
--
卫星状态:
在轨 (已飞行1245 天)
发射日期:
2023-04-15 UTC
国别 :
美国 (US)
星等 :
--
该卫星已列入 空间交会检测服务 Space Conjunction Data Service (SCDS) ,当前飞行风险评估等级: 无高风险
轨道信息
数据来源 国际轨道数据
星历时间: 2026-09-11T23:10:41+0800
5小时前
查看轨道信息
半长轴: 6859.495km
偏心率: 0.0003806
轨道倾角: 97.258°
近地点辐角 95.841°
升交点赤经 138.049°
平近点角 264.326°
近地点: 478.747km
远地点: 483.969km
周期: 94.232分钟
每日圈数: 15.28145
详细信息
使用方式:
暂无
2D轨道图
3D轨道图
轨道高度分析图
轨道倾角分析图
轨道综合分析图
查看轨道综合分析图
与全量物体交会距离演化趋势
与全量物体交会风险概率演化趋势